AirNav   Pilot Hours Calculator
 
 263 users online  

6OI8 Cleveland Clinic Foundation Heliport
Cleveland, Ohio, USA

GOING TO CLEVELAND?


FAA INFORMATION EFFECTIVE 05 DECEMBER 2019

Location

FAA Identifier: 6OI8
Lat/Long: 41-30-02.2200N 081-37-19.4700W
41-30.037000N 081-37.324500W
41.5006167,-81.6220750
(estimated)
Elevation: 724 ft. / 221 m (estimated)
Variation: 08W (2015)
Time zone: UTC -5 (UTC -4 during Daylight Saving Time)
Zip code: 44106

Heliport Operations

Heliport use: Private use. Permission required prior to landing
Activation date: 02/1982
Control tower: no
ARTCC: CLEVELAND CENTER
FSS: CLEVELAND FLIGHT SERVICE STATION
Attendance: CONTINUOUS
Wind indicator: yes
Segmented circle: no
Lights: SS-SR
Beacon: white-green-yellow (heliport)

Heliport Communications

WX ASOS at BKL (2.9 nm W): PHONE 216-241-6904
WX AWOS-3 at CGF (7 nm NE): 119.950 (216-289-4113)
WX ASOS at CLE (12 nm SW): PHONE 216-267-9955
WX AWOS-3PT at LNN (15 nm NE): 119.225 (440-942-0809)

Nearby radio navigation aids

VOR radial/distance  VOR name  Freq  Var
CXRr272/20.6CHARDON VOR/DME112.7005W
DJBr076/25.7DRYER VOR/DME113.6005W
ACOr325/30.2AKRON VOR/DME114.4004W

 
NDB name  Hdg/Dist  Freq  Var  ID
LAKELAND233/15.426308WLQL .-.. --.- .-..

Heliport Services

Runway Information

Helipad H1

Dimensions: 50 x 50 ft. / 15 x 15 m
Surface: concrete
Runway edge lights: PERI
FLD
Latitude: 41-30.037000N
Longitude: 081-37.324500W
Elevation: 724.0 ft.
Traffic pattern: leftleft

Heliport Ownership and Management from official FAA records

Ownership: Privately-owned
Owner: CLEVELAND CLINIC FOUNDATION
9500 EUCLID AVENUE
CLEVELAND, OH 44106
Phone 216-444-2256
Manager: LISA FEICHT
9500 EUCLID AVENUE
CLEVELAND, OH 44106
Phone 216-445-0301
ADDITIONAL CONTACT: J R SESOCK 216-704-5512 SESOCKJ@CCF.ORG

Heliport Operational Statistics

Aircraft based on the field: 1
Helicopters: 1
    

Additional Remarks

FOR CD CTC CLEVELAND APCH AT 216-352-2323

Instrument Procedures

There are no published instrument procedures at 6OI8.

Some nearby airports with instrument procedures:

KBKL - Burke Lakefront Airport (3 nm W)
KCGF - Cuyahoga County Airport (7 nm NE)
KCLE - Cleveland-Hopkins International Airport (12 nm SW)
KLNN - Willoughby Lost Nation Municipal Airport (15 nm NE)
2G1 - Concord Airpark (22 nm NE)
 
Loc | Ops | Rwys | IFR | FBO | Links
Com | Nav | Svcs | Stats | Notes
Area around 6OI8 (Cleveland Clinic Foundation Heliport)
 
Road maps at: MapQuest Bing Google
 
Aerial photo
No photo
 
Sectional chart

 
Airport distance calculator
Flying to Cleveland Clinic Foundation Heliport? Find the distance to fly.

From to 6OI8

Sunrise and sunset
Times for 15-Dec-2019
 Local
(UTC-5)
 Zulu
(UTC)
Morning civil twilight07:1612:16
Sunrise07:4712:47
Sunset16:5621:56
Evening civil twilight17:2822:28

Current date and time
Zulu (UTC)  15-Dec-2019 11:11:51
Local (UTC-5)  15-Dec-2019 06:11:51
 
METAR
KBKL 
3nm NW 
151053Z AUTO 26021G28KT 9SM OVC018 01/M03 A2986 RMK AO2 PK WND 27033/1012 SLP118 T00061033
KCGF 
8nm NE 
151055Z AUTO 10SM OVC014 M01/M03 A2986 RMK AO2 T10051031
KCLE 
11nm SW 
151051Z 27014G20KT 8SM -SN OVC017 M01/M04 A2989 RMK AO2 PK WND 27029/1021 SNB39 SLP129 P0000 T10061039
KLNN 
15nm NE 
151055Z AUTO 28018G27KT 10SM BKN020 OVC026 00/M04 A2985 RMK AO1 T00021043
TAF
KCLE 
11nm SW 
150940Z 1510/1612 27015G24KT P6SM VCSH OVC020 TEMPO 1510/1512 6SM -SHSN BR OVC015 FM151200 27015G22KT P6SM -SHSN OVC025 FM151800 27012KT P6SM OVC030 FM152100 24006KT P6SM BKN035 FM160300 18004KT P6SM OVC050
NOTAMs
Click for the latest NOTAMs
NOTAMs are issued by the DoD/FAA and will open in a separate window not controlled by AirNav.

 

 
 

Would you like to see your business listed on this page?

 If your business provides an interesting product or service to pilots, flight crews, aircraft, or users of the Cleveland Clinic Foundation Heliport, you should consider listing it here.  To start the listing process, click on the button below
 
Add a business
 

Other Pages about Cleveland Clinic Foundation Heliport

Update a link
 
Copyright © AirNav, LLC. All rights reserved. Privacy Policy  Contact